Theta_e
331 329 330 332 336 339 344 354 354 349 346 348 348 345 345 345 344 342 343 340 338 338 336 337 343 345 342 344 344 343 340 340
331 330 331 333 335 334 344 356 357 355 349 350 351 348 347 345 344 342 341 339 337 337 336 337 337 338 337 338 339 340 340 341
333 335 336 337 338 339 343 356 357 361 363 357 352 349 349 347 346 344 341 341 338 337 339 339 337 338 337 336 339 340 341 341
330 333 335 345 342 354 346 355 361 361 359 361 365 357 353 351 347 347 345 342 342 340 338 339 341 338 339 337 338 341 342 343
326 331 335 339 338 344 347 351 363 361 360 360 358 358 353 354 351 354 347 346 345 341 341 339 338 342 339 340 338 342 342 344
326 331 339 344 343 344 351 339 356 362 360 358 358 353 354 353 352 355 354 349 346 348 342 341 342 340 343 339 341 339 340 339
326 328 332 338 340 343 346 348 348 359 361 357 358 357 356 353 354 351 357 352 349 346 346 345 345 341 338 340 339 338 338 339
327 332 333 337 346 351 351 351 354 360 355 354 349 349 350 351 350 353 357 353 351 349 349 344 348 341 340 340 337 339 338 337
327 328 334 332 344 349 349 349 351 355 352 345 341 341 342 347 350 354 357 354 351 350 346 349 346 342 340 342 341 339 335 335
322 326 334 341 344 345 346 349 352 352 347 344 347 345 340 345 351 354 357 355 352 351 348 346 345 344 342 344 340 333 333 338
321 326 332 340 340 343 345 346 347 349 345 345 347 347 353 354 351 352 354 353 352 349 348 346 346 343 340 342 339 336 330 339
317 322 327 334 337 341 347 346 345 345 349 346 344 340 339 347 351 351 351 352 351 349 347 347 349 342 343 339 339 335 337 333
316 317 321 327 330 331 337 344 346 345 346 347 342 345 346 354 353 353 349 352 349 347 346 346 345 343 343 338 339 340 340 335
318 320 320 320 324 328 335 337 338 345 347 351 349 348 347 346 349 346 344 345 343 344 344 344 344 344 345 342 343 340 337 335
318 319 319 320 321 322 325 336 338 346 344 349 346 351 348 355 346 343 341 340 340 341 342 343 344 345 346 344 341 339 338 336
318 319 322 320 323 326 330 334 339 343 342 343 348 348 350 349 345 342 341 339 340 345 344 346 346 345 343 343 340 340 339 336
318 321 321 322 325 331 332 334 336 339 343 346 349 351 352 348 347 345 344 344 344 345 347 346 344 343 341 342 340 337 337 336
320 324 328 332 336 333 335 338 342 347 348 350 350 353 354 351 350 347 346 347 346 347 345 344 342 341 341 340 337 337 335 335
320 327 331 332 339 342 345 344 346 346 346 348 350 351 351 351 348 346 346 347 345 344 342 339 337 338 340 338 336 336 333 333
326 329 335 335 335 340 344 345 342 344 348 349 349 347 347 345 343 342 344 343 343 341 340 338 338 336 336 336 334 334 332 331
Wind_Speed
18 17 17 15 15 14 18 17 16 16 11 10 8 8 8 9 13 11 10 8 8 9 7 9 8 14 8 10 9 7 9 7
16 17 15 13 14 15 16 7 13 14 10 9 10 9 9 8 10 12 9 8 8 7 7 8 9 7 10 8 7 9 10 11
10 4 5 9 7 14 17 18 11 6 5 4 7 10 10 11 11 13 11 10 9 9 7 7 10 9 10 9 9 10 11 11
9 7 6 3 5 1 2 17 14 12 8 6 3 5 6 10 10 12 17 12 10 9 9 9 6 11 9 10 9 9 10 10
18 12 9 6 6 5 3 2 11 11 11 8 5 4 7 5 9 11 18 15 11 13 9 10 10 7 10 10 10 7 5 6
16 10 7 6 7 5 5 5 10 11 10 7 6 7 6 8 8 7 15 16 14 10 9 9 7 7 6 7 7 5 5 3
17 17 14 10 9 9 8 5 3 8 7 7 7 8 7 6 6 9 10 16 16 11 8 7 8 7 7 5 4 4 3 4
18 15 14 10 9 9 8 6 5 6 7 6 7 6 8 7 7 5 8 11 15 12 7 9 7 8 6 4 5 4 4 4
19 20 13 18 10 10 10 9 7 4 3 4 5 7 6 6 7 7 7 10 12 12 10 7 8 8 7 6 5 6 4 4
21 17 12 10 12 9 9 9 9 7 6 6 4 6 8 8 6 6 7 9 10 10 10 8 10 6 7 5 6 3 3 5
18 14 9 6 8 10 11 11 10 9 11 6 5 6 4 3 6 5 5 7 9 10 10 9 8 8 6 5 6 7 6 4
18 16 12 8 5 6 7 10 11 11 11 9 10 9 7 5 5 6 6 6 8 11 11 11 5 8 6 7 7 6 6 4
22 19 11 9 9 8 9 10 12 13 12 13 9 9 6 4 4 9 8 5 6 8 7 8 6 6 6 9 7 8 4 3
19 18 17 14 12 12 9 13 13 13 11 12 10 10 8 6 6 8 5 5 4 5 6 5 6 6 5 8 7 6 5 6
16 21 20 19 20 18 17 13 12 12 13 11 13 9 12 6 12 9 9 6 5 8 9 8 6 7 6 6 6 6 5 3
16 11 11 15 13 13 10 8 10 11 11 11 10 11 6 7 10 9 7 7 8 10 10 10 9 7 6 6 5 4 4 4
10 6 10 12 9 10 10 9 9 10 11 10 10 10 9 11 12 12 10 11 9 11 11 9 8 9 7 6 3 4 6 5
9 8 7 6 6 8 10 10 11 11 11 10 10 10 8 13 11 13 12 10 11 11 9 8 7 6 7 6 5 6 6 4
11 7 6 8 8 8 7 8 11 11 11 11 11 9 10 12 12 10 9 10 11 10 9 6 6 6 6 6 3 5 5 6
8 7 5 4 9 11 8 9 9 9 10 11 12 12 11 11 12 11 10 10 8 8 8 9 8 5 6 5 4 5 6 7
Wind_Direction
211 186 211 179 175 165 155 154 165 173 200 164 179 189 195 202 204 197 195 202 213 203 203 196 192 203 203 212 214 220 219 221
218 206 207 201 202 72 50 285 166 179 181 162 177 184 186 199 201 197 195 203 205 217 204 188 191 193 203 210 207 208 219 227
249 237 332 20 67 147 166 174 160 162 178 199 182 188 186 194 191 195 197 197 207 204 207 208 186 197 190 212 203 208 208 223
253 278 277 358 335 328 163 156 158 161 180 218 214 201 181 184 196 191 199 202 193 207 209 200 201 192 194 201 219 210 205 211
231 236 240 213 230 257 272 301 156 162 176 183 218 235 214 214 200 193 190 195 204 197 201 218 204 191 202 191 214 221 200 211
231 222 238 190 212 215 185 220 158 171 176 183 196 218 234 212 227 201 181 192 197 195 204 199 212 215 198 211 186 200 201 190
225 230 233 218 205 200 187 174 180 169 170 186 201 215 223 227 215 208 184 186 195 194 204 202 192 204 222 197 192 182 194 192
256 221 219 221 190 152 158 166 180 177 183 203 213 211 223 223 227 230 182 185 183 193 202 200 189 204 211 198 178 200 185 184
256 242 228 220 169 163 161 168 188 186 221 217 231 224 225 222 209 206 186 176 176 182 197 201 209 203 208 188 174 177 193 230
242 255 223 192 163 166 169 179 181 186 208 227 234 223 222 211 185 183 179 165 174 175 187 215 197 214 193 199 168 161 204 219
262 263 234 172 181 181 181 186 189 195 214 231 220 244 258 257 167 169 159 155 164 177 190 212 190 204 192 176 167 181 205 194
263 267 255 236 202 201 185 184 194 208 206 218 209 218 217 217 165 155 150 166 180 181 182 208 211 184 205 174 174 195 222 182
237 250 264 268 243 234 222 198 194 203 199 213 212 220 203 198 146 134 150 157 168 169 167 196 174 186 210 172 182 197 169 203
236 225 234 241 248 246 223 204 206 192 197 192 204 208 216 180 148 131 141 127 134 147 176 193 186 192 220 172 168 156 192 216
228 225 221 222 226 234 233 200 191 181 185 183 204 233 199 195 139 145 154 149 168 188 190 198 192 193 156 130 153 182 189 196
236 231 226 220 215 215 207 178 169 167 182 194 191 210 181 137 139 143 156 166 189 182 191 193 186 160 167 158 157 166 166 188
256 229 235 237 239 185 177 170 166 182 186 180 180 189 188 150 149 158 171 175 179 176 189 166 174 166 153 133 157 193 183 159
238 243 251 244 220 180 175 173 161 162 167 173 178 173 169 153 157 165 163 158 169 164 162 162 158 151 133 148 216 178 141 146
232 245 240 226 133 117 132 160 152 152 159 168 153 167 131 132 139 134 136 144 145 155 156 144 156 152 178 176 144 136 150 161
265 266 274 165 179 144 137 143 129 130 130 129 128 123 126 120 117 130 136 134 147 156 153 172 180 156 163 142 205 215 191 188